Wind_Speed
21 21 22 22 22 22 21 20 20 21 21 21 21 21 20 20 20 19 18 18 18 18 18 17 17 17 17 17 17 18 17 17 16 16 16 16 16 16 16 16 16 16 16 15 15 14 14 14 13
23 23 24 24 24 23 22 22 22 22 23 23 23 23 23 22 22 21 20 20 20 20 20 19 19 18 18 18 18 19 19 19 19 18 18 18 18 17 18 18 18 17 17 17 17 16 16 15 15
24 25 25 26 25 24 24 24 24 24 25 25 25 24 24 24 24 23 22 22 21 21 21 20 20 20 20 20 19 20 21 21 20 20 20 20 20 20 20 20 20 19 18 18 18 18 18 18 17
25 25 26 26 25 24 24 25 25 25 26 27 26 26 25 25 25 24 24 24 23 23 23 23 22 22 22 21 21 21 22 23 22 22 22 22 22 22 21 21 21 21 20 20 20 19 19 19 19
26 26 26 26 25 24 25 25 27 26 27 27 28 27 27 27 27 26 26 26 26 24 24 24 24 23 23 23 23 23 23 24 24 24 23 23 22 23 22 22 22 22 22 21 21 20 20 19 19
27 27 27 26 25 26 26 27 28 28 27 28 29 28 28 28 28 28 27 27 28 27 26 26 25 24 24 24 24 24 24 25 25 24 25 24 23 23 23 23 24 23 23 22 22 22 21 20 20
28 28 28 28 27 27 27 28 29 29 29 29 29 29 28 29 30 30 30 29 30 29 28 27 27 27 26 25 25 25 25 25 25 25 26 25 24 24 24 25 24 24 23 23 23 23 22 22 21
27 28 29 28 28 28 29 30 30 30 30 30 30 30 30 30 31 31 32 31 31 30 29 29 28 29 28 28 27 27 26 26 26 26 27 26 26 26 26 26 25 24 24 24 23 23 23 23 22
27 28 28 29 29 29 29 30 30 31 31 31 31 31 32 32 32 32 32 32 32 31 31 30 30 29 29 29 29 28 28 28 28 27 28 28 27 27 26 27 27 26 25 25 25 24 24 24 24
28 28 28 29 30 31 31 31 31 32 32 32 32 32 33 33 34 34 33 33 33 33 33 32 31 31 31 31 31 30 30 30 29 29 29 29 29 28 28 27 27 27 27 26 26 26 26 26 25
29 29 29 30 31 31 31 32 32 34 34 33 33 33 34 35 35 35 35 35 34 35 34 34 33 32 32 32 32 32 32 32 31 31 31 30 30 29 29 28 28 27 28 28 27 28 28 28 27
29 29 30 30 30 31 31 32 33 34 34 35 34 34 34 36 36 36 36 35 36 35 35 35 35 34 34 33 33 33 33 33 33 33 32 31 31 30 30 30 29 29 28 28 28 28 28 29 29
30 29 30 30 31 32 32 31 33 34 34 36 36 35 35 37 38 38 37 36 36 36 36 37 36 36 36 35 34 35 35 35 35 34 34 34 33 33 32 32 31 30 30 29 29 29 29 29 29
30 30 30 30 31 31 32 32 33 32 34 36 36 35 35 36 38 39 39 37 37 37 37 37 37 37 37 37 36 36 36 36 36 36 36 36 36 35 34 34 32 32 31 31 31 31 31 30 30
30 30 30 30 30 31 33 33 33 33 34 36 36 35 35 36 37 38 39 39 38 38 38 37 37 37 38 38 37 37 37 38 38 38 37 38 37 37 36 35 33 33 33 33 33 32 32 32 31
30 30 30 29 30 31 33 33 33 34 35 36 36 36 35 35 37 39 40 39 39 39 39 39 38 37 38 39 38 37 38 38 38 38 39 38 38 38 37 36 35 34 33 33 33 32 32 33 32
30 30 30 29 30 32 33 33 32 34 36 35 36 36 36 36 37 39 39 39 39 39 39 39 39 38 38 39 38 38 38 38 38 38 39 38 39 38 38 38 36 36 35 34 34 34 33 33 33
29 29 29 29 30 31 32 32 31 33 35 36 37 37 38 37 37 38 39 39 39 39 39 39 40 39 39 40 40 39 38 38 38 37 38 38 39 39 39 38 37 37 36 36 35 36 35 34 33
29 29 29 29 30 31 31 31 31 33 34 35 36 36 37 38 38 39 39 39 38 39 39 39 40 40 41 40 40 40 39 38 37 37 37 38 39 39 39 38 38 38 37 37 36 36 35 34 34
28 28 28 29 29 30 30 30 30 32 34 35 36 36 36 37 38 38 39 38 39 39 39 39 40 40 41 41 40 39 39 39 38 38 38 38 38 39 39 38 38 38 37 37 37 36 36 35 35
28 28 28 28 29 30 31 30 29 30 32 33 34 34 35 35 36 37 38 38 37 38 39 39 39 40 41 40 40 40 39 39 38 38 38 38 37 38 39 39 38 38 37 37 36 36 36 36 35
28 27 28 28 29 29 29 30 28 29 30 31 32 32 33 35 35 36 37 38 37 36 37 38 39 39 40 40 40 40 40 39 38 38 39 38 38 38 39 38 38 38 37 37 36 36 36 36 36
27 27 28 28 28 29 28 30 27 27 28 29 29 31 32 33 34 35 36 37 36 35 36 36 36 38 38 39 39 39 39 39 38 38 39 39 38 38 38 38 38 38 38 37 36 36 36 37 36
27 27 28 29 29 29 27 29 28 27 27 27 28 29 30 31 33 35 35 35 35 35 35 35 35 37 38 38 38 38 38 39 39 39 39 38 38 38 37 38 39 39 38 37 36 36 36 35 35
27 27 28 30 29 29 27 29 27 26 27 27 27 28 30 30 32 34 35 35 35 35 35 35 35 36 37 38 38 38 38 38 38 38 40 39 38 38 39 39 39 39 38 37 37 37 36 35 35
27 27 28 29 30 29 28 28 26 26 27 28 28 29 30 30 32 33 34 35 35 36 36 36 35 36 37 38 38 38 38 37 37 38 39 40 39 39 39 39 39 39 39 38 37 36 36 36 36
27 27 27 29 30 30 29 28 26 26 27 27 28 30 31 32 32 33 33 34 35 37 37 37 37 36 36 36 37 38 38 38 37 38 39 40 40 40 39 38 38 38 39 39 38 37 37 38 38
27 27 27 27 29 30 29 28 27 26 26 26 27 28 30 31 32 32 33 34 34 36 36 37 37 38 37 37 37 37 38 39 39 39 39 39 40 40 39 38 37 38 38 39 39 38 38 39 39
27 27 27 28 28 29 30 28 26 26 25 26 27 27 29 30 31 31 33 34 35 35 36 36 37 38 38 38 37 37 37 38 39 38 39 39 39 40 39 38 37 37 38 39 40 40 40 41 41
28 27 27 28 28 29 30 30 28 27 26 26 26 26 27 29 30 31 32 33 34 35 37 38 38 38 38 39 39 38 38 38 39 39 39 39 39 40 40 39 38 37 37 39 40 40 41 41 40
Wind_Direction
258 256 255 255 255 254 254 254 254 253 252 250 249 249 250 251 249 248 248 249 249 247 244 242 242 241 241 241 242 243 246 248 249 249 251 252 254 254 252 251 251 253 255 256 256 259 262 263 263
259 258 257 256 256 256 254 254 254 253 252 251 250 250 250 250 249 248 248 248 248 247 246 244 244 244 244 244 245 245 247 249 250 250 250 251 252 254 253 252 252 253 255 257 258 259 261 264 265
259 259 259 258 257 257 256 254 254 253 252 251 250 250 250 250 249 249 247 247 247 247 246 245 245 246 246 246 247 248 249 250 251 253 252 251 252 254 254 254 254 255 255 256 258 259 261 264 266
260 261 260 259 257 257 255 254 253 252 252 252 251 250 250 249 249 248 246 246 245 246 246 247 246 247 248 248 247 249 250 251 252 253 253 253 254 254 254 254 255 256 256 256 259 259 261 264 265
262 262 261 259 258 256 255 254 253 252 252 253 252 251 250 249 248 247 247 246 245 245 246 247 248 247 248 250 249 250 251 252 252 251 252 253 254 255 254 254 255 256 257 258 258 259 262 265 266
263 263 261 260 260 258 257 255 255 254 253 252 252 249 248 248 247 246 246 246 245 245 245 247 247 247 248 249 250 251 252 253 252 251 252 253 254 255 256 255 255 257 255 256 258 260 263 265 265
263 262 261 262 261 259 258 258 256 255 252 251 251 248 247 247 247 247 246 247 246 246 246 246 247 247 248 249 250 251 252 253 253 252 252 252 254 256 256 256 257 257 257 257 259 260 263 264 265
262 262 262 262 262 260 258 259 258 255 253 251 251 249 246 246 247 248 247 246 246 246 246 247 247 248 249 249 250 250 251 251 252 252 254 254 254 256 256 255 256 257 258 260 260 260 262 264 264
263 262 263 264 263 260 258 259 258 257 253 250 250 249 247 246 247 248 248 246 246 246 247 247 247 248 249 250 251 250 250 250 251 252 254 255 256 256 256 255 256 258 259 260 260 261 262 263 264
265 265 266 265 263 261 259 259 258 257 253 250 249 249 248 247 247 248 249 248 246 246 245 246 247 248 248 249 250 251 250 251 252 252 254 256 257 256 254 255 257 259 259 260 261 262 263 263 264
268 268 267 265 264 263 262 261 259 258 253 250 249 250 250 248 248 248 249 248 246 245 245 246 247 248 249 250 251 251 251 251 252 252 253 254 255 256 255 255 257 259 260 261 261 263 263 263 264
269 269 268 266 265 263 264 261 259 258 255 251 250 250 251 248 248 248 247 248 247 245 245 246 248 248 249 251 252 252 251 252 251 251 251 252 253 254 256 257 258 259 260 262 263 262 263 264 264
270 270 269 267 266 265 265 264 261 259 256 252 250 251 250 248 247 247 247 247 247 245 245 245 246 248 250 251 252 253 253 252 251 251 250 250 252 253 254 256 258 259 260 261 263 263 264 266 265
271 270 270 269 268 267 266 264 261 259 256 254 252 253 253 251 248 247 247 246 246 246 245 245 247 249 250 251 252 253 253 253 252 252 251 251 252 253 254 255 257 258 259 261 261 264 265 267 265
270 270 270 270 270 268 266 263 260 258 257 255 253 253 254 251 249 247 246 246 246 246 244 245 247 248 249 250 251 252 253 252 251 252 252 251 251 252 253 254 256 257 258 260 261 263 266 266 266
269 269 270 270 270 268 266 264 260 259 257 255 254 255 255 252 249 246 245 246 246 246 244 245 246 247 248 250 250 251 251 251 251 252 251 250 250 250 251 252 254 255 258 259 261 262 266 265 264
271 271 272 271 270 268 268 265 261 259 257 256 254 255 255 253 250 247 245 245 246 246 245 245 246 247 247 248 249 249 250 250 251 252 250 249 249 248 249 251 252 254 257 259 260 262 265 265 264
274 272 272 272 272 270 269 267 263 260 258 256 254 254 253 251 250 248 246 246 246 247 247 246 246 247 247 248 248 248 249 250 250 251 250 249 248 248 248 250 251 254 256 258 261 263 265 264 264
273 274 274 275 274 271 270 269 266 263 260 258 255 255 254 251 249 249 248 247 247 248 248 248 247 247 248 248 248 247 248 248 248 250 250 249 249 249 248 249 251 252 255 258 260 262 264 264 265
275 275 276 275 275 273 271 269 267 265 263 261 258 255 254 251 249 249 247 247 248 249 249 249 248 248 248 248 247 247 247 248 247 249 249 250 250 249 248 249 250 252 255 258 260 262 263 264 265
276 277 278 277 275 274 274 271 268 266 264 263 260 256 254 252 248 248 246 246 249 250 250 249 249 247 247 247 246 246 246 247 248 248 249 249 249 250 249 249 250 252 255 257 260 262 263 264 265
277 278 279 280 279 278 277 276 270 268 266 263 260 256 254 252 249 245 243 245 249 252 252 250 249 247 246 247 247 247 246 246 247 249 249 251 249 250 250 249 250 252 254 255 258 261 263 264 266
276 277 279 280 281 279 278 278 275 271 268 265 261 257 255 253 248 245 244 245 249 250 252 250 247 245 245 245 245 246 247 247 248 249 250 250 251 253 252 250 251 253 254 256 258 260 263 265 266
274 276 278 280 281 281 281 280 277 274 272 267 263 257 255 252 248 247 246 248 250 249 250 247 248 247 246 247 246 246 247 248 248 249 249 250 253 254 253 253 253 253 254 256 257 259 261 262 263
274 276 279 281 282 284 285 282 280 276 273 268 263 258 257 255 250 247 248 250 249 249 247 246 248 247 247 248 247 248 247 249 250 251 250 251 253 253 255 254 254 253 254 255 256 258 257 258 262
273 277 280 283 285 286 286 284 282 277 274 269 264 262 261 257 253 250 249 249 249 248 246 247 247 247 248 247 247 248 248 249 251 252 253 252 252 254 255 254 253 253 254 254 254 255 257 258 261
273 276 279 281 283 285 285 284 283 280 275 270 265 263 261 258 256 253 250 249 249 248 247 247 246 247 247 247 247 248 248 249 252 254 255 253 252 254 254 254 254 254 254 254 254 255 257 258 260
272 275 276 279 282 284 285 285 285 282 279 275 269 264 260 257 255 254 251 250 250 249 248 248 248 248 248 248 249 249 249 251 253 254 255 254 253 253 253 253 254 254 253 254 254 255 258 259 261
269 271 273 277 279 282 284 285 285 285 283 280 273 267 262 259 257 256 253 251 251 251 250 250 250 249 249 250 250 252 251 252 253 253 254 255 255 254 253 253 253 254 253 254 256 257 259 260 260
267 270 272 275 278 279 281 283 284 284 283 282 277 271 265 260 257 256 255 253 253 252 252 251 251 249 250 250 251 252 253 253 254 253 253 254 254 254 254 253 253 253 254 256 257 258 259 259 260
Height
5822 5822 5824 5825 5826 5826 5827 5829 5829 5829 5830 5832 5833 5834 5835 5836 5838 5841 5840 5840 5841 5842 5843 5844 5845 5846 5847 5848 5849 5850 5851 5852 5853 5854 5854 5855 5856 5857 5857 5858 5858 5859 5859 5859 5860 5860 5860 5860 5860
5817 5818 5819 5819 5820 5820 5823 5824 5824 5825 5826 5827 5828 5829 5830 5831 5832 5834 5835 5836 5837 5838 5839 5840 5842 5843 5844 5845 5846 5847 5849 5850 5850 5851 5852 5853 5853 5854 5855 5855 5856 5856 5856 5857 5857 5857 5857 5857 5858
5812 5812 5813 5813 5813 5815 5817 5818 5819 5819 5820 5822 5823 5824 5825 5826 5827 5829 5830 5831 5833 5834 5836 5837 5838 5839 5840 5842 5843 5844 5845 5846 5847 5848 5849 5850 5850 5851 5852 5852 5852 5853 5853 5854 5854 5854 5855 5855 5855
5806 5806 5807 5807 5808 5809 5810 5811 5811 5813 5814 5816 5817 5819 5820 5821 5822 5824 5825 5827 5828 5830 5831 5833 5834 5835 5837 5838 5839 5841 5842 5843 5844 5845 5846 5846 5847 5847 5848 5848 5849 5849 5849 5850 5851 5851 5851 5851 5851
5800 5800 5800 5800 5802 5803 5804 5804 5804 5806 5808 5809 5810 5812 5814 5815 5816 5819 5820 5822 5823 5825 5826 5828 5830 5831 5832 5834 5835 5836 5837 5838 5840 5841 5841 5842 5843 5844 5844 5844 5845 5845 5846 5846 5847 5847 5847 5847 5848
5793 5793 5794 5794 5796 5797 5797 5798 5798 5800 5801 5802 5804 5805 5808 5809 5811 5813 5814 5816 5818 5820 5821 5823 5825 5826 5827 5829 5830 5832 5833 5834 5835 5836 5837 5838 5839 5839 5840 5840 5841 5841 5842 5842 5843 5843 5843 5843 5844
5787 5786 5787 5788 5789 5790 5791 5791 5792 5793 5794 5795 5797 5799 5801 5803 5805 5807 5808 5810 5812 5814 5816 5818 5819 5821 5822 5824 5825 5827 5828 5829 5830 5831 5832 5833 5834 5835 5835 5836 5836 5837 5838 5838 5838 5839 5839 5839 5839
5780 5780 5780 5781 5782 5784 5784 5784 5784 5785 5787 5788 5790 5792 5794 5796 5798 5800 5802 5804 5805 5808 5810 5812 5813 5815 5817 5818 5820 5821 5822 5823 5824 5826 5827 5828 5829 5830 5830 5831 5832 5832 5833 5833 5834 5834 5834 5834 5834
5773 5774 5773 5775 5775 5776 5777 5777 5777 5778 5779 5781 5782 5785 5787 5789 5791 5793 5795 5797 5799 5801 5803 5805 5807 5809 5811 5812 5814 5815 5817 5818 5819 5820 5821 5822 5823 5824 5825 5826 5827 5827 5828 5828 5829 5829 5829 5829 5829
5766 5766 5767 5768 5768 5768 5769 5769 5770 5770 5771 5773 5775 5777 5779 5781 5783 5785 5788 5790 5792 5794 5796 5798 5800 5802 5804 5806 5807 5809 5811 5812 5813 5815 5816 5817 5817 5819 5820 5820 5821 5822 5822 5823 5823 5823 5823 5824 5824
5759 5759 5759 5759 5759 5760 5760 5761 5761 5762 5763 5765 5767 5769 5771 5773 5775 5777 5779 5782 5784 5786 5789 5791 5793 5795 5797 5799 5801 5802 5804 5805 5807 5808 5809 5810 5811 5812 5813 5814 5815 5816 5816 5817 5817 5818 5818 5818 5818
5752 5752 5751 5751 5751 5751 5752 5752 5752 5753 5755 5756 5758 5760 5762 5764 5766 5768 5771 5773 5776 5778 5781 5783 5785 5788 5789 5791 5793 5795 5796 5798 5799 5801 5802 5804 5805 5806 5807 5808 5809 5810 5810 5811 5811 5811 5811 5811 5811
5744 5744 5743 5743 5743 5742 5742 5742 5743 5744 5745 5746 5748 5750 5752 5754 5757 5759 5761 5764 5767 5769 5772 5774 5777 5779 5781 5783 5785 5787 5789 5790 5791 5793 5795 5796 5798 5799 5800 5801 5802 5803 5804 5804 5805 5805 5804 5804 5804
5736 5736 5735 5735 5734 5734 5734 5734 5735 5736 5736 5737 5739 5741 5743 5744 5747 5749 5752 5755 5757 5760 5763 5765 5768 5770 5773 5775 5777 5779 5781 5782 5783 5785 5786 5788 5790 5791 5793 5794 5795 5796 5797 5797 5798 5798 5798 5798 5798
5728 5728 5728 5727 5726 5725 5725 5726 5726 5727 5727 5728 5730 5731 5732 5734 5737 5739 5742 5745 5748 5751 5753 5756 5759 5761 5764 5766 5768 5769 5771 5772 5774 5776 5777 5779 5781 5783 5784 5786 5787 5788 5789 5790 5790 5790 5791 5791 5791
5720 5720 5720 5720 5718 5716 5716 5717 5718 5717 5718 5719 5721 5722 5723 5724 5727 5729 5732 5735 5737 5740 5743 5746 5749 5752 5754 5756 5758 5760 5761 5762 5764 5766 5768 5770 5772 5774 5775 5777 5779 5780 5781 5782 5783 5783 5783 5783 5783
5711 5711 5711 5711 5709 5707 5706 5707 5709 5707 5708 5710 5711 5712 5713 5715 5717 5719 5722 5725 5727 5730 5733 5736 5739 5742 5744 5746 5748 5750 5751 5753 5755 5756 5758 5760 5762 5764 5767 5769 5770 5772 5773 5774 5775 5776 5776 5776 5776
5703 5702 5702 5702 5701 5699 5697 5698 5699 5698 5699 5700 5701 5702 5703 5705 5707 5709 5712 5714 5717 5720 5723 5726 5729 5732 5734 5736 5738 5740 5742 5743 5745 5747 5749 5751 5753 5755 5758 5760 5761 5763 5765 5766 5767 5768 5768 5768 5768
5694 5694 5694 5693 5692 5690 5689 5689 5690 5689 5689 5690 5692 5693 5694 5695 5697 5699 5702 5705 5708 5710 5713 5716 5719 5722 5724 5726 5728 5730 5733 5734 5736 5738 5739 5742 5744 5746 5748 5750 5752 5754 5756 5757 5759 5759 5760 5760 5760
5687 5686 5686 5685 5683 5681 5681 5681 5682 5681 5680 5681 5682 5683 5684 5686 5688 5690 5692 5695 5698 5701 5703 5706 5709 5711 5714 5716 5719 5721 5723 5725 5727 5728 5730 5732 5734 5736 5739 5741 5743 5745 5747 5748 5750 5751 5752 5752 5752
5679 5678 5677 5676 5675 5673 5672 5673 5674 5673 5672 5672 5672 5674 5675 5676 5678 5680 5683 5686 5688 5691 5694 5696 5699 5701 5703 5706 5708 5711 5713 5715 5717 5719 5721 5723 5725 5727 5729 5731 5734 5736 5738 5739 5741 5742 5743 5743 5744
5672 5670 5669 5668 5667 5666 5665 5663 5666 5665 5664 5664 5664 5664 5665 5666 5668 5670 5674 5677 5679 5681 5684 5686 5689 5691 5694 5696 5699 5702 5704 5707 5708 5710 5712 5714 5715 5717 5720 5722 5724 5726 5728 5730 5732 5733 5734 5734 5735
5664 5663 5662 5660 5658 5657 5657 5655 5658 5657 5656 5656 5656 5656 5656 5657 5659 5661 5664 5667 5670 5672 5674 5676 5679 5682 5684 5686 5689 5692 5694 5697 5699 5701 5703 5704 5706 5708 5710 5712 5715 5717 5719 5721 5723 5724 5725 5725 5726
5657 5656 5655 5653 5651 5651 5651 5648 5649 5649 5648 5648 5648 5648 5648 5650 5651 5653 5655 5658 5660 5663 5665 5667 5669 5672 5675 5677 5679 5682 5685 5687 5690 5691 5693 5695 5697 5699 5701 5703 5705 5707 5709 5711 5713 5714 5715 5716 5717
5649 5649 5647 5645 5643 5643 5642 5640 5641 5641 5640 5640 5640 5640 5641 5642 5643 5645 5647 5649 5651 5653 5656 5658 5660 5662 5665 5667 5670 5673 5676 5678 5680 5682 5684 5686 5688 5690 5692 5693 5695 5697 5699 5701 5703 5704 5706 5707 5708
5642 5641 5640 5638 5636 5635 5634 5633 5634 5633 5632 5631 5631 5632 5632 5633 5634 5636 5638 5640 5642 5644 5646 5648 5650 5653 5655 5658 5661 5663 5666 5668 5670 5673 5675 5677 5679 5681 5682 5684 5686 5688 5689 5691 5693 5695 5696 5697 5699
5634 5633 5633 5630 5628 5627 5626 5626 5626 5625 5624 5623 5623 5623 5623 5624 5625 5627 5629 5631 5633 5635 5637 5639 5641 5644 5646 5649 5651 5653 5656 5658 5661 5663 5665 5667 5669 5671 5672 5674 5676 5677 5680 5681 5683 5685 5686 5688 5689
5627 5626 5625 5623 5620 5619 5619 5619 5619 5617 5616 5615 5614 5614 5614 5614 5616 5618 5620 5622 5624 5626 5628 5630 5632 5634 5636 5639 5641 5644 5646 5648 5650 5652 5655 5657 5659 5661 5663 5664 5666 5667 5670 5672 5673 5675 5677 5678 5679
5619 5618 5616 5615 5614 5612 5611 5614 5612 5610 5608 5607 5607 5606 5606 5606 5607 5609 5610 5612 5614 5616 5618 5620 5623 5624 5627 5629 5631 5634 5636 5638 5640 5642 5644 5646 5648 5650 5652 5654 5656 5658 5660 5661 5663 5665 5667 5668 5669
5610 5610 5609 5608 5607 5605 5603 5607 5604 5602 5601 5599 5599 5598 5598 5598 5599 5600 5601 5603 5605 5607 5609 5611 5613 5615 5617 5619 5621 5623 5625 5627 5630 5632 5634 5635 5638 5640 5642 5644 5646 5647 5649 5651 5653 5655 5656 5658 5659